| time (UTC) | temp F | wind direction | speed knots | gust knots | rain 1hr in | rain 24hr in | rain mn in | humidity % | barometer mb |
| 20260504201835 | 62 | 200 | 17.4 | 26.1 | 0.00 | 0.00 | 0.00 | 56 | 298.5 |
| 20260504200334 | 62 | 200 | 17.4 | 26.1 | 0.00 | 0.00 | 0.00 | 56 | 298.5 |
| 20260504194835 | 64 | 200 | 17.4 | 25.2 | 0.00 | 0.00 | 0.00 | 50 | 298.7 |
| 20260504193334 | 64 | 200 | 17.4 | 25.2 | 0.00 | 0.00 | 0.00 | 50 | 298.7 |
| 20260504191843 | 64 | 200 | 17.4 | 25.2 | 0.00 | 0.00 | 0.00 | 50 | 298.7 |
| 20260504190333 | 64 | 200 | 17.4 | 25.2 | 0.00 | 0.00 | 0.00 | 50 | 298.7 |
| 20260504184834 | 64 | 210 | 14.8 | 22.6 | 0.00 | 0.00 | 0.00 | 48 | 298.8 |
| 20260504183335 | 64 | 210 | 14.8 | 22.6 | 0.00 | 0.00 | 0.00 | 48 | 298.8 |
| 20260504181833 | 64 | 210 | 14.8 | 22.6 | 0.00 | 0.00 | 0.00 | 48 | 298.8 |
| 20260504180334 | 64 | 210 | 14.8 | 22.6 | 0.00 | 0.00 | 0.00 | 48 | 298.8 |
| 20260504174835 | 64 | 220 | 14.8 | 20.0 | 0.00 | 0.00 | 0.00 | 46 | 299.0 |
| 20260504173333 | 64 | 220 | 14.8 | 20.0 | 0.00 | 0.00 | 0.00 | 46 | 299.0 |
| 20260504171835 | 64 | 220 | 14.8 | 20.0 | 0.00 | 0.00 | 0.00 | 46 | 299.0 |
| 20260504170333 | 64 | 220 | 14.8 | 20.0 | 0.00 | 0.00 | 0.00 | 46 | 299.0 |
| 20260504160335 | 62 | 200 | 12.2 | 19.1 | 0.00 | 0.00 | 0.00 | 44 | 299.2 |
| 20260504150735 | 62 | 220 | 14.8 | 20.9 | 0.00 | 0.00 | 0.00 | 42 | 299.3 |
| 20260504150334 | 62 | 220 | 14.8 | 20.9 | 0.00 | 0.00 | 0.00 | 42 | 299.3 |
| 20260504140334 | 60 | 230 | 12.2 | 0.0 | 0.00 | 0.00 | 0.00 | 42 | 299.4 |
| 20260504110333 | 51 | 230 | 6.1 | 0.0 | 0.00 | 0.00 | 0.00 | 58 | 299.6 |
| 20260504081833 | 48 | 220 | 4.3 | 0.0 | 0.00 | 0.00 | 0.00 | 54 | 299.3 |
| 20260504080334 | 48 | 220 | 4.3 | 0.0 | 0.00 | 0.00 | 0.00 | 54 | 299.3 |
| 20260504070333 | 50 | 240 | 6.1 | 0.0 | 0.00 | 0.00 | 0.00 | 52 | 299.1 |
| 20260504050334 | 50 | 230 | 6.1 | 0.0 | 0.00 | 0.00 | 0.00 | 52 | 299.1 |
| 20260504043333 | 51 | 220 | 4.3 | 0.0 | 0.00 | 0.00 | 0.00 | 48 | 299.0 |
| 20260504041834 | 51 | 220 | 4.3 | 0.0 | 0.00 | 0.00 | 0.00 | 48 | 299.0 |
| 20260504040333 | 51 | 220 | 4.3 | 0.0 | 0.00 | 0.00 | 0.00 | 48 | 299.0 |
| 20260504034834 | 51 | 220 | 4.3 | 0.0 | 0.00 | 0.00 | 0.00 | 38 | 299.0 |
| 20260504033334 | 51 | 220 | 4.3 | 0.0 | 0.00 | 0.00 | 0.00 | 38 | 299.0 |
| 20260504031832 | 51 | 220 | 4.3 | 0.0 | 0.00 | 0.00 | 0.00 | 38 | 299.0 |
| 20260504030333 | 51 | 220 | 4.3 | 0.0 | 0.00 | 0.00 | 0.00 | 38 | 299.0 |
| 20260504024833 | 53 | 220 | 5.2 | 0.0 | 0.00 | 0.00 | 0.00 | 32 | 299.0 |
| 20260504023333 | 53 | 220 | 5.2 | 0.0 | 0.00 | 0.00 | 0.00 | 32 | 299.0 |
| 20260504021835 | 53 | 220 | 5.2 | 0.0 | 0.00 | 0.00 | 0.00 | 32 | 299.0 |
| 20260504020333 | 53 | 220 | 5.2 | 0.0 | 0.00 | 0.00 | 0.00 | 32 | 299.0 |
| 20260504014835 | 55 | 260 | 2.6 | 0.0 | 0.00 | 0.00 | 0.00 | 27 | 298.8 |
| 20260504013334 | 55 | 260 | 2.6 | 0.0 | 0.00 | 0.00 | 0.00 | 27 | 298.8 |
| 20260504010335 | 55 | 260 | 2.6 | 0.0 | 0.00 | 0.00 | 0.00 | 27 | 298.8 |
| 20260504004833 | 57 | 270 | 6.1 | 0.0 | 0.00 | 0.00 | 0.00 | 24 | 298.5 |
| 20260504003434 | 57 | 270 | 6.1 | 0.0 | 0.00 | 0.00 | 0.00 | 24 | 298.5 |
| 20260504003333 | 57 | 270 | 6.1 | 0.0 | 0.00 | 0.00 | 0.00 | 24 | 298.5 |
| 20260504001834 | 57 | 270 | 6.1 | 0.0 | 0.00 | 0.00 | 0.00 | 24 | 298.5 |
| 20260504000406 | 57 | 270 | 6.1 | 0.0 | 0.00 | 0.00 | 0.00 | 24 | 298.5 |
| 20260504000333 | 57 | 270 | 6.1 | 0.0 | 0.00 | 0.00 | 0.00 | 24 | 298.5 |
| 20260503234833 | 59 | 280 | 8.7 | 14.8 | 0.00 | 0.00 | 0.00 | 21 | 298.4 |
| 20260503233335 | 59 | 280 | 8.7 | 14.8 | 0.00 | 0.00 | 0.00 | 21 | 298.4 |
| 20260503231836 | 59 | 280 | 8.7 | 14.8 | 0.00 | 0.00 | 0.00 | 21 | 298.4 |
| 20260503230332 | 59 | 280 | 8.7 | 14.8 | 0.00 | 0.00 | 0.00 | 21 | 298.4 |
| 20260503224833 | 59 | 300 | 10.4 | 20.0 | 0.00 | 0.00 | 0.00 | 23 | 298.3 |
| 20260503223333 | 59 | 300 | 10.4 | 20.0 | 0.00 | 0.00 | 0.00 | 23 | 298.3 |
| 20260503221833 | 59 | 300 | 10.4 | 20.0 | 0.00 | 0.00 | 0.00 | 23 | 298.3 |
| 20260503220335 | 59 | 300 | 10.4 | 20.0 | 0.00 | 0.00 | 0.00 | 23 | 298.3 |
| 20260503213333 | 57 | 300 | 10.4 | 25.2 | 0.00 | 0.00 | 0.00 | 23 | 298.2 |
| 20260503211835 | 57 | 300 | 10.4 | 25.2 | 0.00 | 0.00 | 0.00 | 23 | 298.2 |
| 20260503210500 | 57 | 300 | 10.4 | 25.2 | 0.00 | 0.00 | 0.00 | 23 | 298.2 |
| 20260503210333 | 57 | 300 | 10.4 | 25.2 | 0.00 | 0.00 | 0.00 | 23 | 298.2 |
| 20260503204839 | 57 | 310 | 17.4 | 28.7 | 0.00 | 0.00 | 0.00 | 25 | 298.3 |
| 20260503203334 | 57 | 310 | 17.4 | 28.7 | 0.00 | 0.00 | 0.00 | 25 | 298.3 |